Ogden Hill AFB, UT

11:12 PM MDT on June 27, 2017 (GMT -0600)
Hill Air Force Base

Weather History for KHIF - July, 2013

Change the Weather History Date:

Tuesday, July 16, 2013

  Actual Average Record
Temperature  
Mean Temperature 78 °F -  
Max Temperature 91 °F 87 °F 98 °F (2003)
Min Temperature 66 °F 63 °F 59 °F (1996)
Cooling Degree Days 13    
Growing Degree Days 28 (Base 50)    
Moisture  
Dew Point 56 °F    
Average Humidity 53    
Maximum Humidity 83    
Minimum Humidity 27    
Precipitation  
Precipitation 0.13 in - - ()
Sea Level Pressure  
Sea Level Pressure 29.94 in    
Wind  
Wind Speed 12 mph (ESE)    
Max Wind Speed 24 mph    
Max Gust Speed 32 mph    
Visibility 10 miles    
Events Rain , Thunderstorm    
Averages and records for this station are not official NWS values.
T = Trace of Precipitation, MM = Missing Value Source: NWS Daily Summary

Daily Weather History Graph

Daily Weather History Graph

Search for Another Location

Airport or City:

Trip Planner

Search our weather history database for the weather conditions in past years. The results will help you decide how hot, cold, wet, or windy it might be!

Date:

Astronomy

Jul. 16, 2013 Rise Set
Actual Time 6:09 AM MDT 8:58 PM MDT
Civil Twilight 5:36 AM MDT 9:30 PM MDT
Nautical Twilight 4:55 AM MDT 10:11 PM MDT
Astronomical Twilight 4:08 AM MDT 10:58 PM MDT
Moon 2:42 PM MDT (7/16) 12:42 AM MDT (7/16)
Length of Visible Light 15h 53m
Length of Day
14h 48m
First Quarter, 57% of the Moon is Illuminated
Jul 16
First Quarter
Jul 22
Full
Jul 29
Last Quarter
Aug 6
New
Aug 14
First Quarter

Hourly Weather History & Observations

Time (MDT) Temp. Heat Index Dew Point Humidity Pressure Visibility Wind Dir Wind Speed Gust Speed Precip Events Conditions
12:58 AM 74.3 °F - 55.0 °F 51% 29.81 in 10.0 mi ESE 6.9 mph - 0.00 in   Mostly Cloudy
1:58 AM 75.4 °F - 53.2 °F 46% 29.76 in 10.0 mi ESE 13.8 mph - N/A   Scattered Clouds
2:58 AM 74.5 °F - 53.4 °F 48% 29.78 in 10.0 mi ESE 18.4 mph - N/A   Scattered Clouds
3:58 AM 74.8 °F - 57.2 °F 54% 29.80 in 10.0 mi ESE 8.1 mph - N/A   Overcast
4:58 AM 73.0 °F - 54.1 °F 51% 29.80 in 10.0 mi ESE 11.5 mph - N/A   Overcast
5:58 AM 71.1 °F - 55.4 °F 58% 29.81 in 10.0 mi ESE 10.4 mph - N/A   Mostly Cloudy
6:58 AM 71.8 °F - 55.0 °F 55% 29.82 in 10.0 mi ESE 12.7 mph - N/A   Overcast
7:58 AM 74.1 °F - 54.3 °F 50% 29.83 in 10.0 mi ESE 10.4 mph - N/A   Overcast
8:58 AM 77.0 °F - 55.4 °F 47% 29.66 in 10.0 mi ESE 11.5 mph - N/A   Mostly Cloudy
9:58 AM 77.5 °F - 57.0 °F 49% 29.88 in 10.0 mi Variable 5.8 mph - N/A   Mostly Cloudy
10:58 AM 77.2 °F - 56.5 °F 49% 29.89 in 10.0 mi ESE 10.4 mph - N/A   Mostly Cloudy
11:06 AM 77.0 °F - 57.2 °F 50% 30.07 in 10.0 mi ESE 9.2 mph - N/A Rain Light Rain
11:21 AM 77.0 °F - 59.0 °F 54% 30.08 in 10.0 mi ESE 10.4 mph - N/A   Mostly Cloudy
11:58 AM 78.8 °F - 57.6 °F 48% 29.89 in 10.0 mi ESE 5.8 mph - 0.00 in   Mostly Cloudy
12:58 PM 84.6 °F - 52.0 °F 32% 29.88 in 10.0 mi WSW 5.8 mph - N/A   Mostly Cloudy
1:58 PM 87.1 °F - 52.5 °F 30% 29.86 in 10.0 mi WSW 6.9 mph - N/A   Mostly Cloudy
2:58 PM 88.0 °F 85.9 °F 53.4 °F 31% 29.84 in 10.0 mi Variable 6.9 mph - N/A   Partly Cloudy
3:58 PM 90.0 °F - 52.2 °F 27% 29.82 in 10.0 mi NNE 5.8 mph - N/A   Scattered Clouds
4:58 PM 89.2 °F - 51.4 °F 27% 29.82 in 10.0 mi North 4.6 mph - N/A   Scattered Clouds
5:58 PM 86.5 °F 84.6 °F 53.4 °F 32% 29.85 in 10.0 mi East 15.0 mph - N/A   Mostly Cloudy
6:41 PM 82.4 °F - 51.8 °F 35% 30.04 in 10.0 mi East 21.9 mph 32.2 mph N/A Thunderstorm Mostly Cloudy
6:58 PM 81.5 °F - 51.1 °F 35% 29.84 in 10.0 mi East 24.2 mph 32.2 mph N/A Thunderstorm Mostly Cloudy
7:37 PM 80.6 °F - 51.8 °F 37% 30.09 in 10.0 mi SSE 10.4 mph 19.6 mph N/A Rain , Thunderstorm Light Rain
7:45 PM 77.0 °F - 55.4 °F 47% 30.12 in 10.0 mi SSW 18.4 mph - N/A Rain , Thunderstorm Light Rain
7:58 PM 73.4 °F - 60.8 °F 65% 29.96 in 10.0 mi SSW 18.4 mph 24.2 mph 0.00 in Rain , Thunderstorm Light Rain
8:01 PM 73.4 °F - 59.0 °F 61% 30.14 in 10.0 mi South 21.9 mph 26.5 mph N/A Rain Light Rain
8:58 PM 67.8 °F - 61.9 °F 81% 29.87 in 9.0 mi SSE 21.9 mph - 0.08 in Rain Light Rain
9:58 PM 66.4 °F - 61.0 °F 83% 30.00 in 10.0 mi ESE 10.4 mph - 0.05 in Rain Light Rain
10:24 PM 68.0 °F - 59.0 °F 73% 30.16 in 10.0 mi East 4.6 mph - N/A   Mostly Cloudy
10:29 PM 68.0 °F - 59.0 °F 73% 30.16 in 10.0 mi Variable 3.5 mph - N/A   Mostly Cloudy
10:44 PM 68.0 °F - 59.0 °F 73% 30.14 in 10.0 mi East 12.7 mph - N/A   Mostly Cloudy
10:54 PM 68.0 °F - 59.0 °F 73% 30.14 in 10.0 mi East 12.7 mph - N/A   Scattered Clouds
10:58 PM 67.3 °F - 59.2 °F 75% 29.96 in 10.0 mi East 13.8 mph - 0.00 in   Mostly Cloudy
11:08 PM 68.0 °F - 59.0 °F 73% 30.11 in 10.0 mi East 19.6 mph - N/A   Mostly Cloudy
11:33 PM 69.8 °F - 57.2 °F 64% 30.09 in 10.0 mi ESE 19.6 mph - N/A   Mostly Cloudy
11:38 PM 69.8 °F - 57.2 °F 64% 30.09 in 10.0 mi ESE 16.1 mph - N/A   Scattered Clouds
11:58 PM 68.9 °F - 57.7 °F 68% 29.91 in 10.0 mi ESE 20.7 mph 26.5 mph N/A   Partly Cloudy